Location: Orange
(33.2833°S, 149.1000°E)
Time: 00:29:58
(UTC+11:00)

X-37B - Visible Passes

Search period start: 05 December 2021 00:00
Search period end: 15 December 2021 00:00
Orbit: 330 x 341 km, 45.0° (Epoch: 20 November)

Date Brightness Start Highest point End Pass type
(mag) Time Alt. Az. Time Alt. Az. Time Alt. Az.
08 Dec 3.0 04:55:43 10° NNE 04:56:57 12° NE 04:58:12 10° ENE visible
09 Dec 1.2 05:14:29 10° NW 05:17:10 41° NE 05:19:54 10° ESE visible
10 Dec 3.0 04:02:28 12° NE 04:02:28 12° NE 04:03:36 10° ENE visible
11 Dec 1.1 04:21:59 34° N 04:22:36 40° NE 04:25:20 10° ESE visible
12 Dec 0.8 04:41:26 22° WNW 04:43:01 53° SSW 04:45:50 10° SE visible
13 Dec 2.8 03:29:36 20° E 03:29:36 20° E 03:30:46 10° ESE visible
13 Dec 2.4 05:01:21 10° WSW 05:03:37 21° SSW 05:05:56 10° SSE visible
14 Dec 1.3 03:48:56 46° S 03:48:56 46° S 03:51:17 10° SE visible
